FLOCK 4P-5

Last updated on Sat Dec 28 2019 00:02:03 GMT+0000 (Coordinated Universal Time)

1 44818U 19081Q 19360.89925182 .00000564 00000-0 29574-4 0 9993 2 44818 97.5204 57.8488 0012308 133.1259 227.1007 15.19787859 4511
UTC large
Height (km)
Speed (km/s)
/
Latitude / Longitude
Inclination (degrees)
Orbital Period (minutes)
Azimuth
Elevation
Range (km)
Doppler Factor

Next 0 passes for location: London (51.5072 / 0.1276)

Sorry there are no passes over London.